Flag for Honduras Weather past 2 weeks in La Ceiba, Honduras

Now
86 °F

Scattered clouds.


Feels Like: 95 °F
Forecast: 78 / 89 °F
Wind: 13 mph from Northeast

Location: La Ceiba Airport

Current Time: Aug 1, 2015 at 12:49:14 PM

Latest Report: Aug 1, 2015 at 12:00 PM


Visibility: N/A

Pressure: 29.92 "Hg

Humidity: 70%

Dew point: 75 °F

Location of La CeibaLocation

Historic Weather in La Ceiba — Graph

°F

La Ceiba temperature yesterday

Maximum temperature yesterday: 90 °F (at 1:00 PM)
Minimum temperature yesterday: 72 °F (at 6:00 AM)
Average temperature yesterday: 82 °F

Past Weeks' High & Low Weather Summary

 TemperatureHumidityPressure
High90 °F (Jul 17, 11:00 AM)94% (Jul 17, 11:00 PM)30.01 "Hg (Jul 17, 11:00 PM)
Low72 °F (Jul 19, 6:00 AM)59% (Jul 25, 3:00 PM)29.86 "Hg (Jul 17, 5:00 PM)
Average83 °F76%29.93 "Hg
* Reported Jul 17 11:00 AM — Aug 1 11:00 AM, La Ceiba, Weather by CustomWeather, © 2015

Note: Actual official high and low records may vary slightly from our data, if they occured in-between our weather recording intervals... More about our weather records

Advertising

La Ceiba weather history for previous 24 hours

 ConditionsComfort  
Time TempWeatherWind HumidityBarometerVisibility
11:00 AM
Sat, Aug 1
88 °FScattered clouds.9 mph66%29.95 "HgN/A
10:00 AM86 °FScattered clouds.8 mph70%29.95 "HgN/A
9:00 AM84 °FPassing clouds.3 mph70%29.95 "HgN/A
8:00 AM82 °FScattered clouds.No wind70%29.95 "HgN/A
7:00 AM77 °FScattered clouds.No wind79%29.98 "HgN/A
6:00 AM72 °FPartly sunny.No wind94%29.92 "HgN/A
12:00 AM73 °FPassing clouds.No wind94%29.95 "HgN/A
11:00 PM
Fri, Jul 31
75 °FPassing clouds.No wind89%29.98 "HgN/A
10:00 PM79 °FPassing clouds.5 mph79%29.98 "HgN/A
9:00 PM77 °FThunderstorms. Partly cloudy.5 mph83%29.95 "HgN/A
8:00 PM77 °FThunderstorms. Partly cloudy.6 mph79%29.95 "HgN/A
7:00 PM81 °FSleet. Partly cloudy.12 mph79%29.92 "HgN/A
5:00 PM84 °FScattered clouds.16 mph70%29.89 "Hg4 mi
4:00 PM86 °FScattered clouds.15 mph66%29.89 "HgN/A
3:00 PM86 °FThunderstorms. Scattered clouds.14 mph66%29.89 "Hg4 mi
2:00 PM88 °FScattered showers. Scattered clouds.17 mph66%29.92 "Hg4 mi
1:00 PM90 °FScattered clouds.9 mph63%29.95 "HgN/A
12:00 PM88 °FScattered clouds.9 mph62%29.98 "HgN/A
Weather by CustomWeather, © 2015

See weather overviewHow to use our weather pages